Regional Weather Roundup
Issued by NWS

Home | Current Version | Previous Version | Text Only | Print | Product List | Glossary Off
Versions: 1 2 3 4 5 6 7 8 9 10 11 12 13 14 15 16 17 18 19 20 21 22 23 24 25 26 27 28 29 30 31 32 33 34 35 36 37 38 39 40 41 42 43 44 45 46 47 48 49 50

999
ASUS44 KMEG 251810
RWRTN
TENNESSEE HOURLY STATE WEATHER ROUNDUP
NATIONAL WEATHER SERVICE MEMPHIS TN
1200 PM CST SUN FEB 25 2018

TNZ002-004-019-021-049-052-054-088>092-251900-
WEST TENNESSEE

CITY           SKY/WX    TMP DP  RH WIND       PRES   REMARKS
MEMPHIS INTL   CLOUDY    54  38  54 VRB3      30.13S
NWS MEMPHIS      N/A     53 N/A N/A MISG        N/A
JACKSON        FAIR      52  36  54 N5        30.13F
DYERSBURG      FAIR      51  36  56 NE3       30.15F
SOMERVILLE     SUNNY     52  41  66 CALM      30.11S
COVINGTON      SUNNY     50  37  62 NE6       30.13F
UNION CITY     SUNNY     48  34  57 VRB3      30.12F
BOLIVAR        SUNNY     52  39  62 CALM      30.12R
PARIS          SUNNY     50  37  62 CALM      30.11F
LEXINGTON      SUNNY     52  39  62 N6        30.11F
SELMER         SUNNY     52  41  66 CALM      30.11F
SAVANNAH       SUNNY     52  45  76 CALM      30.11F
$$

TNZ008-025-027-028-033-062-065-066-251900-
NORTH MIDDLE TENNESSEE

CITY           SKY/WX    TMP DP  RH WIND       PRES   REMARKS
NASHVILLE      CLOUDY    54  43  66 NW3       30.12S
PORTLAND       MOSUNNY   50  43  76 CALM      30.11F
CLARKSVILLE    FAIR      50  36  58 CALM      30.12F
SMYRNA         PTSUNNY   53  46  77 W3        30.13F
COOKEVILLE     PTSUNNY   54  50  87 CALM      30.08F
GALLATIN       SUNNY     52  45  76 NW6       30.15R
CROSSVILLE     FAIR      51  47  86 SE6       30.06F
$$

TNZ061-075-076-078-094-096-097-251900-
SOUTH MIDDLE TENNESSEE

CITY           SKY/WX    TMP DP  RH WIND       PRES   REMARKS
FAYETTEVILLE   PTSUNNY   55  52  88 VRB3      30.08F
TULLAHOMA      CLOUDY    54  50  87 NW9       30.09F
WINCHESTER     MOSUNNY   55  50  82 SE6       30.05F
MCMINNVILLE    CLOUDY    54  50  87 NW5       30.07F
COLUMBIA       SUNNY     52  48  87 CALM      30.10F
SHELBYVILLE    CLOUDY    52  48  87 CALM      30.10F
$$

TNZ017-018-042-046-047-251900-
NORTHEAST TENNESSEE

CITY           SKY/WX    TMP DP  RH WIND       PRES   REMARKS
TRI CITIES     PTSUNNY   58  53  84 W12       30.08F
ELIZABETHTON   FAIR      61  54  77 CALM      30.04F
$$

TNZ012-013-036-069-073-074-251900-
CENTRAL EAST TENNESSEE

CITY           SKY/WX    TMP DP  RH WIND       PRES   REMARKS
KNOXVILLE      NOT AVBL
OAK RIDGE      FAIR      56  53  90 CALM      30.09S
DOWNTOWN KNOXV SUNNY     59  52  77 SW8       30.09S
GATLINBURG     SUNNY     57  50  77 NW7       30.11F
JACKSBORO      MOSUNNY   57  52  82 CALM      30.10F
$$

TNZ083-085-099-251900-
SOUTHEAST TENNESSEE

CITY           SKY/WX    TMP DP  RH WIND       PRES   REMARKS
CHATTANOOGA    PTSUNNY   58  49  72 SE7       30.07F
$$

SKY/WX REPORTED AS FAIR MEANS FEW OR NO CLOUDS BELOW
12 THOUSAND FEET.





USA.gov is the U.S. government's official web portal to all federal, state and local government web resources and services.